Temperature
15 15 15 14 15 15 15 15 14 14 14 15 15 14 14 14 14 14 14 14 14 14 14 14 14 14 14 14 14 14 14 14 14 14 13 13 13 13 14 13 13 13 14
16 15 14 14 14 15 15 14 14 14 14 14 14 14 14 14 14 14 14 14 14 14 14 14 14 13 13 13 13 13 14 14 14 13 13 13 13 13 13 13 13 13 13
15 15 14 14 14 14 14 14 14 14 14 14 14 14 14 13 14 13 13 13 13 13 13 13 13 13 13 13 13 13 13 14 13 13 13 13 13 13 13 13 13 13 13
15 15 14 14 14 14 14 14 14 14 14 14 13 13 13 13 13 13 13 13 13 13 13 13 13 13 13 13 13 13 13 13 13 13 13 13 13 13 13 13 13 12 13
15 14 14 14 14 14 14 14 13 13 13 13 13 13 13 13 13 13 13 13 13 13 13 13 13 13 13 13 13 13 13 13 13 13 13 13 13 12 12 12 12 12 12
14 14 14 14 14 14 13 13 13 13 13 13 13 13 13 13 13 13 13 13 13 13 13 13 13 13 13 13 13 13 13 13 13 13 13 13 12 12 12 12 12 12 12
14 14 14 14 13 13 13 13 13 13 13 13 13 13 13 13 13 13 13 13 13 13 13 13 13 13 13 13 13 13 13 13 13 13 13 12 12 12 12 12 12 12 12
14 13 13 13 13 13 13 13 13 13 13 13 13 13 12 13 13 13 13 13 13 13 13 13 13 13 13 13 13 13 13 13 13 13 12 12 12 12 11 11 11 11 11
13 13 13 13 13 13 13 13 13 12 12 12 12 12 12 12 13 13 13 12 12 12 12 13 13 13 12 12 12 13 13 13 12 12 12 12 12 11 11 11 11 11 11
12 12 12 12 12 12 12 12 12 12 12 12 12 12 12 12 12 12 12 12 12 12 12 12 12 12 12 12 12 12 12 12 12 12 12 12 11 11 11 11 11 11 11
12 12 12 12 12 12 12 12 12 12 12 12 12 12 12 12 12 12 12 12 12 12 12 12 12 12 12 12 12 12 12 12 12 12 11 11 11 11 11 10 10 10 10
12 12 12 12 12 11 12 11 11 11 12 12 12 12 12 12 12 12 12 12 12 12 12 12 11 11 11 12 12 11 11 11 11 11 11 11 11 11 10 10 10 10 10
12 11 11 11 11 11 11 11 11 11 11 11 11 11 11 11 11 11 12 12 11 11 11 11 11 11 11 11 11 11 11 11 11 11 11 11 10 10 10 10 10 10 10
11 11 11 11 11 11 11 11 11 11 11 11 11 11 11 11 11 11 11 11 11 11 11 11 11 11 11 11 11 11 11 11 11 11 10 10 10 10 10 10 10 9 9
11 11 11 11 11 11 11 11 10 10 11 11 11 11 11 11 11 11 11 11 11 11 11 11 10 10 10 10 10 10 10 10 10 10 10 10 10 9 9 9 9 9 9
11 11 11 11 11 10 10 10 10 10 10 10 10 10 10 10 10 10 10 10 10 10 10 10 10 10 10 10 10 10 10 10 10 10 10 9 9 9 9 9 9 9 9
11 11 11 10 10 10 10 10 10 10 10 10 10 10 10 10 10 10 10 10 10 10 10 10 10 9 9 9 9 10 10 10 9 9 9 9 9 9 9 9 8 8 8
11 10 10 10 10 10 10 10 10 9 9 9 9 9 10 10 9 9 9 9 9 9 9 9 9 9 9 9 9 9 9 9 9 9 9 9 9 9 9 9 8 8 8
10 10 10 10 10 10 10 9 9 9 9 9 9 9 9 9 9 9 9 9 9 9 9 9 9 9 8 8 9 9 8 8 8 8 8 8 8 8 8 8 8 8 8
10 10 10 10 10 9 9 9 9 9 9 9 9 9 9 9 9 9 9 8 8 8 8 8 8 8 8 8 8 8 8 8 8 8 8 8 8 8 8 8 8 8 8
10 10 10 10 9 9 9 9 9 9 9 8 8 8 8 8 8 8 8 8 8 8 8 8 8 8 8 7 7 7 7 7 7 7 7 7 7 7 7 7 7 7 7
10 10 9 9 9 9 9 9 9 9 8 8 8 8 8 8 8 8 8 8 8 8 8 7 7 7 7 7 7 6 6 7 7 7 7 7 7 7 7 7 6 7 7
9 9 9 9 9 9 8 8 8 8 8 8 8 8 8 7 7 7 7 7 7 7 7 7 7 7 7 7 6 6 6 6 6 6 7 7 6 6 6 6 6 6 6
9 9 9 9 9 8 8 8 8 8 8 8 8 8 8 7 7 7 7 7 7 7 7 7 7 6 6 6 6 6 6 5 5 5 6 6 6 6 6 6 6 6 6
9 9 9 9 8 8 8 8 8 8 8 8 8 7 7 7 7 7 7 7 6 6 6 6 6 6 6 6 5 5 5 5 5 4 5 5 6 6 5 5 5 5 5
8 8 8 8 8 8 8 8 8 8 7 7 7 7 7 7 7 7 6 6 6 6 6 6 6 5 5 5 5 5 5 4 4 4 4 4 5 5 5 5 5 5 5
Wind_Speed
3 3 6 7 7 9 10 9 9 9 9 10 10 11 11 11 11 12 11 11 11 11 11 11 11 11 12 12 12 12 12 11 11 12 12 12 11 12 12 11 11 10 11
4 5 7 7 8 9 10 9 9 9 9 9 9 10 10 10 11 11 11 10 10 10 10 10 10 11 11 11 11 11 11 11 11 11 11 11 11 11 11 10 9 9 10
4 5 8 8 9 9 9 9 9 9 8 8 9 9 9 10 10 10 10 10 9 9 9 9 10 10 10 10 10 10 10 11 11 10 10 9 9 10 10 9 9 9 9
5 6 7 9 10 10 9 9 9 8 8 8 8 8 9 9 9 10 9 9 9 9 9 9 9 9 9 9 9 9 9 9 10 10 9 8 7 8 8 9 8 8 8
5 6 7 10 10 10 9 9 9 8 8 8 8 8 8 8 9 9 8 8 8 8 8 8 8 8 8 8 8 8 9 9 9 9 8 7 6 7 7 7 7 7 7
5 6 8 10 10 9 9 8 8 8 8 8 8 8 8 8 8 8 8 7 7 7 7 7 7 8 8 7 8 8 8 8 9 8 7 6 5 5 6 6 6 6 6
5 5 7 10 10 9 8 8 8 7 7 7 7 7 7 7 7 7 7 7 7 7 7 7 7 7 7 7 7 7 7 7 8 7 5 4 4 4 4 5 5 5 6
5 5 6 9 9 9 9 8 7 7 7 7 7 7 7 7 6 6 6 6 6 6 7 7 7 7 7 7 6 6 6 6 6 5 5 4 3 3 3 3 4 4 5
5 4 4 7 8 8 8 8 8 7 7 7 7 7 7 7 6 6 5 5 5 6 6 6 6 6 6 6 6 5 6 6 6 4 3 3 2 2 2 3 3 3 4
3 3 3 5 6 7 7 8 8 8 7 7 7 7 6 6 6 6 5 5 5 5 5 5 5 5 5 5 5 5 5 5 4 3 3 2 2 1 1 2 3 3 3
3 2 3 4 5 6 6 6 7 7 7 8 8 8 8 7 6 5 5 5 5 5 4 4 4 4 4 4 4 4 4 4 3 2 2 2 2 1 1 1 2 2 2
4 3 2 3 4 5 5 6 6 6 7 7 7 8 8 7 6 5 5 5 5 4 4 4 4 4 4 4 3 3 3 3 3 2 2 2 2 2 1 1 1 1 2
5 4 3 3 4 5 4 5 5 5 6 7 7 7 7 7 6 6 5 5 5 5 4 4 4 4 4 3 2 2 2 2 2 2 2 2 2 2 1 1 1 1 2
5 5 4 3 3 4 5 4 5 4 4 4 5 6 6 4 4 4 4 4 4 3 3 3 3 3 3 3 2 2 1 1 1 2 2 2 2 3 2 2 2 3 3
6 5 4 4 4 4 4 4 4 4 4 4 4 4 5 4 3 2 2 3 3 3 2 2 2 2 2 2 2 2 2 2 2 2 3 3 3 3 4 4 4 4 4
7 6 5 5 4 4 4 4 4 4 4 4 4 4 5 4 3 2 2 2 2 2 1 1 1 1 1 1 1 2 1 1 1 2 3 4 4 5 5 5 6 6 6
7 6 5 5 4 5 4 5 4 4 5 4 3 4 4 4 4 3 2 1 1 1 2 2 2 2 1 1 1 2 1 1 1 2 2 3 4 5 6 6 6 6 7
6 6 6 5 5 5 4 4 4 5 5 4 3 3 4 4 4 4 2 1 1 2 2 1 1 1 1 1 1 2 2 2 2 2 2 2 3 4 5 5 6 6 6
7 7 7 6 6 5 4 4 4 4 4 4 3 3 3 3 4 4 2 1 2 2 1 1 1 1 0 1 1 2 2 1 2 2 2 2 2 2 3 4 5 6 6
6 7 7 6 6 5 4 3 3 3 2 3 3 3 3 3 3 3 2 2 2 2 1 1 1 1 1 0 1 2 2 2 1 1 1 2 2 3 3 3 4 5 6
5 6 7 7 6 5 4 4 3 3 3 2 2 3 4 4 3 3 2 2 2 2 2 2 2 1 1 1 1 2 2 1 1 1 1 1 2 3 3 2 2 3 4
7 7 7 7 7 7 6 4 3 3 2 2 2 2 3 4 4 3 3 2 2 2 2 2 2 1 0 1 1 1 2 2 1 1 1 1 2 2 2 3 2 3 4
7 8 7 8 7 7 6 4 3 3 2 2 2 2 2 3 4 4 4 3 3 3 3 3 3 3 1 0 1 1 1 2 3 2 1 2 2 2 2 3 3 3 4
7 6 6 7 6 6 7 6 6 5 4 4 3 3 2 3 3 3 4 4 3 3 2 3 3 2 3 1 0 0 1 1 1 2 2 2 2 2 3 3 3 4 4
6 6 6 6 6 6 7 7 6 4 3 2 2 3 2 2 2 3 3 3 3 3 3 3 2 2 2 2 2 1 0 0 0 1 4 4 3 2 3 3 3 4 4
4 5 5 6 6 6 7 6 7 6 5 5 4 3 3 2 1 2 3 3 3 3 3 3 3 2 2 2 2 2 2 1 1 1 3 4 5 4 3 3 3 3 5
Wind_Direction
206 209 179 154 140 139 134 130 126 124 122 118 116 113 109 107 106 104 100 96 93 89 86 85 86 83 83 82 81 78 76 73 72 75 73 72 73 73 70 67 63 63 70
170 182 167 150 138 136 135 133 128 128 126 126 122 117 113 111 110 109 104 100 96 93 90 88 86 85 84 83 81 79 77 74 73 72 70 69 71 72 69 68 66 65 68
138 157 158 147 136 134 134 134 133 130 129 132 128 124 121 117 115 112 109 105 100 96 93 91 89 87 87 85 83 81 79 76 75 71 66 59 63 70 69 68 66 66 66
137 143 149 145 137 134 131 133 136 134 133 134 133 130 126 121 120 116 112 108 102 98 98 94 91 90 90 89 87 83 80 78 75 71 60 51 54 71 70 69 68 66 64
123 130 143 143 139 135 131 129 134 138 137 136 137 134 130 127 124 118 114 109 105 103 100 97 92 91 92 91 89 86 82 78 73 66 56 46 46 69 71 69 66 64 63
118 125 137 141 138 135 133 130 132 140 143 141 137 134 131 130 126 121 117 113 108 105 101 99 96 94 94 94 92 89 84 78 70 62 54 43 38 68 73 71 67 64 60
126 125 140 140 136 133 134 133 132 134 137 141 138 136 132 124 124 124 119 114 109 108 105 103 101 96 95 94 93 90 84 78 72 59 45 31 30 68 75 71 68 63 60
131 124 135 143 138 135 135 134 133 130 131 133 134 131 129 124 120 123 121 115 113 113 111 109 105 102 99 93 90 85 81 77 70 54 34 19 29 67 80 77 73 67 63
117 112 115 136 138 138 136 133 129 126 122 125 128 125 122 118 116 111 112 115 119 119 115 112 110 108 103 96 88 81 77 75 68 48 25 3 17 53 74 83 75 67 61
107 105 106 116 124 125 131 132 128 125 122 121 121 116 113 110 109 106 101 104 110 114 116 113 112 111 104 96 89 81 74 71 59 34 13 355 3 18 62 89 75 59 49
127 124 119 114 115 120 126 130 126 124 119 112 110 103 94 83 83 89 95 96 103 111 113 110 111 105 99 96 88 82 71 65 54 24 353 345 341 337 9 74 73 44 31
175 173 145 132 125 121 124 117 107 105 105 102 99 98 94 89 80 73 80 86 92 93 96 99 97 90 82 78 75 71 66 59 50 4 323 331 325 320 341 40 43 14 359
182 177 168 151 138 130 118 111 104 102 101 104 104 103 98 87 76 66 58 57 64 70 69 74 76 72 72 70 64 60 62 59 31 358 324 325 326 326 308 315 348 344 339
178 183 175 162 145 139 130 120 122 117 111 109 113 116 107 93 80 66 55 48 56 65 68 66 70 67 63 58 55 44 33 40 6 351 340 339 329 327 322 322 327 321 315
185 185 182 171 164 152 139 136 134 135 134 131 124 125 122 116 112 91 72 61 56 64 74 76 79 68 59 48 37 30 8 359 350 349 343 351 342 328 320 313 306 304 299
192 191 184 179 172 160 158 152 149 147 145 137 133 140 137 131 129 116 96 83 61 64 87 94 112 103 64 46 26 15 360 354 356 344 337 334 335 327 317 310 305 303 301
194 191 190 183 170 168 167 162 153 152 145 144 150 153 150 146 138 129 125 114 82 74 79 83 80 83 73 38 2 3 17 9 344 334 328 326 325 328 317 308 306 304 300
188 188 193 184 175 177 169 160 156 153 147 147 149 147 150 151 146 136 134 144 110 103 99 115 107 80 50 19 341 334 355 7 350 330 329 331 331 331 328 319 315 311 306
192 189 189 185 179 182 168 154 151 150 150 148 145 147 153 156 155 142 145 150 125 111 117 137 109 114 98 349 329 339 341 331 327 336 356 350 340 335 335 330 330 324 319
194 190 188 183 179 170 154 135 127 135 142 143 153 161 157 158 157 143 134 134 124 126 130 136 138 96 121 163 357 347 329 314 338 346 331 344 344 338 338 334 330 327 328
190 187 188 182 179 166 164 168 168 180 180 172 168 167 167 165 161 147 141 134 138 161 172 160 142 113 61 51 43 348 328 317 314 312 334 355 351 332 330 330 327 327 324
193 193 191 188 182 179 180 179 170 161 168 170 160 168 174 171 168 167 163 158 169 169 157 152 143 142 76 65 98 25 330 326 322 308 310 305 316 334 324 310 312 319 322
196 196 196 192 184 179 170 146 123 108 97 130 168 186 188 185 183 178 174 169 179 182 189 189 175 167 180 238 95 139 166 251 308 310 298 303 309 300 299 304 300 300 307
203 193 190 185 180 175 164 164 165 173 184 192 183 183 182 191 188 187 179 179 181 179 189 204 192 185 167 183 211 47 184 176 231 304 311 307 297 289 290 305 300 294 300
192 182 180 174 175 173 172 174 175 180 179 155 154 166 175 178 185 188 182 178 186 188 186 184 194 191 181 181 178 185 198 21 193 235 288 307 309 285 278 278 282 286 288
178 170 167 168 175 174 174 176 179 178 170 164 174 180 186 184 186 195 189 186 195 196 193 193 187 194 203 193 191 183 180 187 214 224 262 290 296 296 290 273 266 273 279
Height
1507 1509 1511 1513 1514 1516 1517 1518 1520 1521 1522 1523 1524 1525 1526 1526 1527 1528 1529 1529 1530 1530 1531 1531 1531 1531 1532 1532 1532 1533 1533 1533 1533 1534 1534 1534 1534 1535 1535 1535 1535 1536 1536
1506 1508 1510 1512 1514 1515 1517 1518 1519 1521 1522 1523 1524 1525 1526 1526 1527 1528 1529 1529 1530 1530 1531 1531 1531 1532 1532 1533 1533 1533 1533 1534 1534 1534 1534 1535 1535 1535 1535 1536 1536 1537 1537
1505 1508 1510 1512 1513 1515 1516 1518 1519 1520 1522 1523 1524 1525 1526 1526 1527 1528 1529 1529 1530 1530 1531 1531 1532 1532 1532 1533 1533 1533 1534 1534 1534 1535 1535 1535 1535 1536 1536 1536 1537 1537 1537
1505 1507 1509 1511 1513 1515 1516 1517 1519 1520 1521 1522 1523 1524 1525 1526 1527 1528 1529 1529 1530 1530 1531 1531 1532 1532 1533 1533 1533 1534 1534 1534 1535 1535 1535 1535 1536 1536 1537 1537 1537 1537 1538
1505 1507 1509 1511 1513 1514 1516 1517 1518 1519 1521 1522 1523 1524 1525 1526 1527 1528 1528 1529 1530 1530 1531 1531 1532 1532 1533 1533 1533 1534 1534 1534 1535 1535 1535 1536 1536 1537 1537 1537 1537 1537 1538
1505 1507 1509 1510 1512 1513 1515 1516 1517 1519 1520 1521 1522 1523 1525 1525 1526 1527 1528 1529 1529 1530 1531 1531 1532 1532 1533 1533 1533 1534 1534 1534 1535 1535 1535 1536 1536 1537 1537 1537 1537 1537 1537
1505 1507 1508 1510 1511 1513 1514 1516 1517 1518 1519 1520 1522 1523 1524 1525 1526 1526 1527 1528 1529 1530 1530 1531 1531 1532 1532 1533 1533 1533 1534 1534 1534 1535 1535 1535 1536 1536 1537 1537 1537 1537 1537
1505 1506 1508 1509 1511 1512 1514 1515 1516 1517 1518 1519 1520 1522 1523 1524 1524 1525 1526 1527 1528 1529 1530 1530 1531 1531 1532 1532 1532 1533 1533 1534 1534 1534 1535 1535 1536 1536 1536 1536 1537 1537 1537
1504 1506 1507 1508 1510 1511 1513 1514 1515 1517 1518 1519 1520 1521 1522 1523 1524 1525 1525 1526 1527 1528 1529 1530 1530 1530 1531 1531 1532 1532 1532 1533 1533 1533 1534 1534 1535 1535 1535 1536 1536 1536 1536
1503 1505 1506 1507 1509 1510 1511 1513 1514 1516 1517 1518 1519 1520 1521 1522 1523 1524 1524 1525 1526 1527 1528 1528 1529 1529 1530 1530 1531 1531 1532 1532 1532 1533 1533 1533 1534 1534 1535 1535 1535 1535 1535
1502 1503 1504 1506 1507 1509 1510 1512 1513 1515 1516 1517 1518 1519 1520 1521 1522 1523 1523 1524 1525 1526 1527 1527 1528 1528 1529 1529 1530 1530 1530 1531 1531 1531 1532 1532 1533 1533 1533 1534 1534 1534 1533
1499 1501 1502 1504 1506 1507 1509 1510 1512 1513 1514 1515 1516 1517 1518 1519 1520 1521 1522 1523 1524 1525 1525 1526 1526 1527 1527 1528 1528 1529 1529 1529 1530 1530 1530 1531 1531 1532 1532 1532 1532 1532 1532
1497 1499 1500 1502 1504 1505 1507 1508 1510 1512 1513 1514 1515 1516 1517 1518 1519 1520 1520 1521 1522 1523 1524 1524 1525 1525 1526 1526 1527 1527 1528 1528 1528 1528 1529 1529 1530 1530 1530 1530 1530 1530 1530
1495 1497 1498 1500 1501 1503 1505 1507 1508 1510 1511 1512 1513 1514 1515 1516 1517 1518 1518 1519 1520 1521 1522 1523 1523 1524 1524 1525 1525 1525 1526 1526 1527 1527 1527 1528 1528 1528 1528 1528 1528 1528 1527
1493 1495 1496 1498 1499 1501 1503 1505 1506 1507 1509 1510 1511 1512 1513 1514 1515 1516 1517 1517 1518 1519 1520 1521 1521 1522 1522 1523 1523 1524 1524 1524 1525 1525 1525 1525 1526 1526 1526 1526 1526 1525 1525
1490 1492 1494 1495 1497 1499 1500 1502 1504 1505 1507 1508 1509 1510 1511 1512 1513 1513 1514 1515 1516 1517 1518 1518 1519 1520 1520 1521 1521 1521 1522 1522 1522 1523 1523 1523 1523 1523 1523 1523 1523 1523 1522
1487 1489 1491 1492 1494 1496 1498 1499 1501 1502 1504 1505 1506 1507 1508 1509 1510 1511 1512 1512 1513 1514 1515 1516 1517 1518 1518 1518 1519 1519 1519 1520 1520 1520 1520 1521 1521 1521 1521 1520 1520 1520 1520
1483 1485 1488 1489 1491 1493 1495 1496 1498 1500 1501 1502 1504 1505 1506 1507 1508 1509 1509 1510 1511 1512 1513 1514 1514 1515 1515 1516 1516 1516 1517 1517 1517 1518 1518 1518 1518 1518 1518 1518 1517 1517 1516
1480 1482 1484 1486 1487 1490 1492 1494 1495 1496 1498 1499 1501 1502 1503 1504 1505 1506 1507 1508 1509 1510 1511 1511 1512 1512 1513 1513 1513 1513 1514 1514 1515 1515 1515 1515 1515 1515 1515 1515 1514 1513 1513
1476 1478 1480 1482 1484 1486 1488 1490 1492 1493 1495 1496 1498 1499 1500 1502 1503 1504 1505 1505 1506 1507 1508 1508 1509 1509 1510 1511 1511 1511 1511 1511 1512 1512 1512 1512 1512 1512 1512 1511 1511 1510 1510
1472 1474 1476 1478 1480 1482 1484 1486 1488 1489 1491 1493 1495 1496 1498 1499 1500 1501 1502 1503 1504 1505 1505 1506 1506 1507 1507 1508 1508 1508 1508 1508 1508 1509 1509 1509 1509 1509 1509 1508 1508 1507 1507
1467 1469 1472 1474 1476 1478 1480 1483 1485 1487 1488 1490 1492 1494 1495 1496 1497 1498 1499 1500 1501 1502 1502 1503 1503 1504 1504 1505 1506 1506 1505 1506 1505 1506 1506 1506 1506 1506 1505 1505 1505 1504 1503
1462 1465 1467 1470 1472 1474 1477 1479 1482 1484 1485 1487 1489 1490 1492 1493 1494 1495 1496 1498 1499 1499 1500 1500 1501 1501 1501 1502 1503 1505 1504 1503 1502 1502 1502 1502 1502 1502 1502 1502 1501 1500 1500
1458 1461 1463 1466 1468 1471 1473 1475 1477 1479 1481 1483 1485 1487 1489 1490 1491 1492 1493 1494 1495 1496 1497 1498 1498 1498 1499 1499 1500 1501 1502 1501 1501 1499 1499 1499 1499 1499 1498 1498 1497 1497 1496
1454 1457 1459 1462 1465 1467 1470 1472 1474 1476 1478 1481 1483 1484 1486 1487 1488 1489 1490 1491 1492 1493 1494 1494 1495 1495 1495 1496 1497 1497 1498 1498 1498 1498 1495 1495 1495 1495 1494 1494 1493 1493 1492
1450 1453 1456 1458 1461 1464 1466 1469 1471 1473 1475 1477 1479 1481 1482 1484 1485 1486 1487 1488 1489 1490 1490 1491 1491 1492 1492 1493 1493 1494 1494 1494 1494 1495 1493 1491 1491 1491 1490 1490 1489 1489 1488